Location: *
(57.8420°S, 159.8600°W)
Time: 05:21:54
(UTC+00:00)

Daily predictions for brighter satellites

Satellite Brightness Start Highest point End
(mag) Time Altitude Azimuth Time Altitude Azimuth Time Altitude Azimuth
ARIANE 5 R/B 3.5 03:02:53 10° S 03:07:51 48° WSW 03:12:51 10° NW
Cosmos 2219 Rocket 2.8 03:03:27 10° N 03:08:38 39° ENE 03:13:50 10° SE
SJ 16-02 2.2 03:04:39 10° SSW 03:08:39 31° SE 03:12:38 10° ENE
Meteor 1-11 4.3 03:04:35 10° N 03:10:15 77° ENE 03:16:04 10° SSE
Cosmos 2360 Rocket 2.3 03:04:58 10° NNW 03:10:38 78° ENE 03:16:22 10° SE
Cosmos 1484 Rocket 2.9 03:09:25 10° SSE 03:13:16 59° ENE 03:17:08 10° N
IDEFIX/ARIANE 42P 4.1 03:08:48 10° S 03:13:27 32° SW 03:18:03 10° WNW
CZ-2C R/B 3.2 03:10:10 10° NE 03:15:23 40° ESE 03:20:33 10° S
Cosmos 1697 Rocket 4.1 03:11:21 10° W 03:16:14 28° SSW 03:21:08 10° SE
Meteor 1-31 Rocket 3.6 03:13:22 10° SSE 03:16:53 31° E 03:20:21 10° NNE
CZ-2C R/B 2.7 03:13:03 10° SSE 03:17:47 67° WSW 03:22:23 10° NNW
COSMOS 2428 3.3 03:14:13 10° N 03:19:30 39° ENE 03:24:49 10° SE
SKYMED 2 3.6 03:15:10 10° NNE 03:19:33 70° ESE 03:24:00 10° SSW
Cosmos 1354 Rocket 4.4 03:19:00 10° SSW 03:24:22 74° WNW 03:29:38 10° NNE
CZ-2C R/B 3.5 03:21:07 10° S 03:24:51 53° WSW 03:28:31 10° NW
Cosmos 1825 3.2 03:21:47 10° NNE 03:25:05 28° E 03:28:25 10° SSE
YAOGAN 6 3.9 03:26:36 10° SE 03:29:27 22° E 03:32:17 10° NE
Cosmos 1980 Rocket 3.5 03:25:11 10° W 03:30:13 31° SSW 03:35:18 10° SE
FENGYUN 3A 3.9 03:26:02 10° SSE 03:31:36 80° WSW 03:37:05 10° NNW
Cosmos 2237 4.5 03:26:36 10° NW 03:32:21 75° SW 03:38:11 10° SE
Cosmos 1184 Rocket 4.3 03:29:16 10° NW 03:32:21 36° WSW 03:35:27 10° S
Meteor 2-2 Rocket 4.3 03:27:33 10° SSW 03:33:37 79° ESE 03:39:29 10° NNE
Cosmos-2242 4.4 03:30:25 10° SSW 03:34:41 45° W 03:38:52 10° NNW
Meteor 2-8 Rocket 4.5 03:28:43 10° SSW 03:35:02 81° ESE 03:41:16 10° NNE
SL-4 R/B 0.9 03:35:19 10° NW 03:36:41 45° NE 03:38:26 14° ESE
ATLAS 3B R/B 3.7 03:30:24 10° N 03:36:54 34° ENE 03:42:55 11° ESE
CZ-4B R/B 4.0 03:33:37 10° SSE 03:37:16 45° E 03:40:57 10° N
Cosmos 1992 Rocket 4.2 03:32:05 10° N 03:37:16 58° ENE 03:42:29 10° SE
CZ-4B R/B 1.4 03:34:30 10° NE 03:37:33 49° ESE 03:40:42 10° S
ADEOS II 4.4 03:35:05 10° S 03:38:29 17° SW 03:41:51 10° W
IRIDIUM 114 4.4 03:34:42 10° S 03:39:59 59° E 03:45:13 10° NNE
Envisat 3.5 03:41:19 10° SSE 03:46:09 38° E 03:50:56 10° NNE
Cosmos 1633 4.2 03:43:59 10° ENE 03:46:13 16° E 03:46:53 15° ESE
SeaSat 1 4.3 03:43:48 10° SE 03:47:05 18° S 03:50:21 10° SW
CZ-4B R/B 3.8 03:44:11 10° SSE 03:48:20 34° E 03:52:18 10° NNE
IRIDIUM 103 4.3 03:43:50 10° S 03:49:10 68° E 03:54:26 10° NNE
Cosmos 1825 Rocket 3.8 03:45:39 10° NNW 03:50:06 78° WSW 03:54:36 10° S
Cosmos 1937 Rocket 4.3 03:45:54 10° SSW 03:50:36 31° SE 03:55:05 11° E
Cosmos 1689 Rocket 3.2 03:48:39 10° ENE 03:51:05 24° ESE 03:53:32 10° S
Cosmos 405 Rocket 3.4 03:47:53 10° NNE 03:51:23 34° E 03:54:59 10° SSE
Cosmos 1302 Rocket 4.4 03:47:04 10° NW 03:52:17 65° SW 03:57:34 10° SSE
Cosmos 1461 3.8 03:48:29 10° WSW 03:52:39 53° NW 03:56:58 10° NNE
Cosmos 1953 Rocket 3.6 03:48:11 10° N 03:52:44 82° E 03:57:22 10° SSE
Cosmos 1606 2.8 03:50:02 10° S 03:53:52 52° ESE 03:57:37 10° NNE
SL-16 R/B 3.8 03:51:30 10° NE 03:54:17 14° E 03:55:04 14° E
Cosmos 1242 Rocket 3.2 03:51:48 10° S 03:55:20 36° ESE 03:58:49 10° NE
Cosmos 1356 4.0 03:52:48 10° NNE 03:56:01 37° E 03:58:59 12° SSE
Meteor PRIRODA 4.3 03:52:59 10° SSE 03:56:32 35° E 04:00:01 10° NNE
In-Cosmos 22 Rocket 4.1 03:52:16 10° N 03:57:38 85° ENE 04:03:07 10° SSE
METEOR-M 4.5 03:52:22 10° SSE 03:57:48 71° WSW 04:03:11 10° NNW
Cosmos 2322 3.7 03:52:10 10° NNW 03:57:56 84° NE 04:03:42 10° SE
PSLV R/B 4.0 03:55:03 10° NE 03:59:08 57° ESE 04:03:15 10° S
DMSP B5D2-2 4.3 03:54:58 10° NE 04:00:04 48° ESE 04:05:10 10° S
Cosmos 2297 3.8 03:55:06 10° SW 04:00:54 65° SE 04:06:41 10° NE
Cosmos 2221 2.6 03:57:25 10° SSW 04:01:49 82° WNW 04:06:08 10° N
H-2A R/B 3.2 03:57:48 10° N 04:01:49 46° W 04:05:53 10° SSW
ATLAS CENTAUR R/B 1.5 03:59:20 10° SW 04:03:51 87° NW 04:08:02 10° NE
Lacrosse 5 3.3 03:59:18 10° WSW 04:04:05 39° NW 04:08:51 10° NNE
Nadezhda 4 Rocket 4.0 03:58:40 10° N 04:04:54 90° ENE 04:11:16 10° SSE
Cosmos 1842 Rocket 3.8 04:00:38 10° SSW 04:05:10 79° W 04:09:41 10° N
NOSS 3-2 (C) 4.0 03:57:13 10° WNW 04:05:29 86° SSW 04:11:25 16° ESE
IRIDIUM 106 4.4 04:02:10 10° S 04:07:32 88° E 04:12:50 10° N
COSMO-SKYMED 1 3.7 04:03:24 10° N 04:07:41 50° W 04:12:02 10° SSW
Cosmos 1867 3.6 04:03:07 10° SW 04:08:34 84° NW 04:13:59 10° NE
ADEOS 3.6 04:04:34 10° SSE 04:09:56 81° ENE 04:15:14 10° NNW
Cosmos 1437 Rocket 2.6 04:06:04 10° SSW 04:09:58 87° ESE 04:13:48 10° NNE
ERS-2 2.7 04:06:34 10° NE 04:09:58 35° ESE 04:13:25 10° S
Cosmos 1092 Rocket 4.0 04:03:49 10° N 04:10:03 68° E 04:16:25 10° SSE
SL-16 R/B 3.3 04:05:23 10° WNW 04:10:43 38° SSW 04:15:58 11° SE
SAR-Lupe-4 4.0 04:09:07 10° NE 04:12:33 40° ESE 04:16:02 10° S
ALOS 3.6 04:08:26 10° S 04:12:55 41° WSW 04:17:20 10° NW
Cosmos 2026 Rocket 4.1 04:08:26 10° N 04:14:44 61° E 04:21:03 10° SSE
Genesis I 3.9 04:11:35 10° NNW 04:15:14 37° NE 04:16:52 25° E
Cosmos 1943 Rocket 2.2 04:09:41 10° SW 04:15:23 64° SE 04:21:05 10° NE
Cosmos 2333 Rocket 2.3 04:11:15 10° NW 04:16:57 82° SW 04:22:11 13° SE
H-2A R/B 2.7 04:15:53 10° SSE 04:19:51 77° ENE 04:23:42 10° N
Cosmos 2237 Rocket 2.6 04:15:40 10° N 04:21:03 44° ENE 04:24:51 19° SE
Cosmos 1656 Rocket 4.2 04:16:51 10° SSW 04:22:02 38° SE 04:24:54 22° E
Cosmos 1328 Rocket 4.4 04:18:19 10° S 04:22:17 29° ESE 04:23:57 23° E
SAR-Lupe-1 4.2 04:19:40 10° NE 04:23:14 52° ESE 04:26:49 10° S
NOSS 3-2 (A) 4.1 04:17:54 10° WNW 04:25:55 67° SSW 04:30:54 21° ESE
MOS 1-B Rocket 4.2 04:20:44 10° NE 04:26:26 54° ESE 04:32:58 10° SSW
Cosmos 1076 Rocket 3.6 04:22:37 10° N 04:26:51 52° E 04:31:10 10° SSE
Cosmos 2151 3.6 04:24:42 10° NNE 04:28:34 34° E 04:30:20 24° SE
Lacrosse 4 Rocket 3.1 04:26:51 10° SW 04:30:09 21° S 04:31:45 17° SSE
Cosmos 990 Rocket 3.9 04:28:01 10° SSW 04:33:15 67° SE 04:38:27 10° NE
Cosmos 1408 3.8 04:30:04 10° NW 04:33:41 44° WSW 04:37:21 10° S
Cosmos 2322 Rocket 3.5 04:30:14 10° W 04:35:24 34° SSW 04:39:55 13° SSE
Cosmos 1892 4.2 04:31:54 10° NW 04:35:35 37° WSW 04:39:16 10° S
Cosmos 2278 Rocket 4.1 04:33:23 10° SW 04:38:27 33° WNW 04:43:28 10° N
deb Chang Zheng 4 3.7 04:35:18 16° SSE 04:38:44 53° ENE 04:43:03 10° N
Cosmos 2058 3.1 04:34:48 10° NNW 04:39:01 74° WSW 04:43:18 10° S
Cosmos 1898 Rocket 3.5 04:35:14 10° SSW 04:40:30 65° SE 04:45:18 12° NE
USA 238 DEB 4.0 04:33:07 10° WNW 04:40:34 67° SSW 04:45:13 23° ESE
Cosmos 2266 Rocket 4.4 04:35:06 10° NNE 04:40:35 36° E 04:46:12 10° SSE
USA 238 4.0 04:33:13 10° WNW 04:40:40 68° SSW 04:45:19 23° ESE
Cosmos 2369 Rocket 2.2 04:36:18 10° SW 04:41:57 59° SE 04:45:32 22° ENE
Cosmos 2098 Rocket 3.0 04:40:12 10° NNW 04:43:06 50° WSW 04:45:43 13° S
S3M 4.0 04:38:15 10° S 04:44:42 74° ESE 04:51:09 10° NNE
SJ 16-02 2.0 04:43:07 10° SSW 04:47:32 59° WNW 04:51:56 10° N
CZ-4B R/B 3.8 04:49:26 32° E 04:49:26 32° E 04:54:10 10° NNE
PSLV R/B 3.9 04:49:18 46° ESE 04:49:43 48° E 04:53:23 10° N
Cosmos 1607 4.3 04:43:40 10° SW 04:49:44 63° NW 04:55:51 10° NNE
Meteor 1-26 Rocket 4.3 04:43:41 10° SSW 04:49:51 74° ESE 04:55:53 10° NNE
CENTAUR R/B 2.9 04:43:45 10° WNW 04:51:03 64° SSW 04:54:39 27° SE
Meteor 1-31 Rocket 4.1 04:47:42 10° S 04:51:22 39° WSW 04:54:59 10° NW
Cosmos 1809 Rocket 4.5 04:45:34 10° N 04:51:40 59° E 04:57:48 10° SSE
Cosmos 1151 Rocket 3.1 04:48:04 10° S 04:52:23 54° ESE 04:54:55 23° NE
Cosmos 2219 Rocket 2.6 04:46:51 10° NW 04:52:27 60° SW 04:56:40 18° SSE
USA 234 4.1 04:52:33 26° ENE 04:54:38 31° NE 05:00:22 10° NNW
Cosmos 1782 2.9 04:50:41 10° S 04:54:46 56° ESE 04:56:14 35° NE
Cosmos 2360 Rocket 3.4 04:49:54 10° W 04:55:10 37° SSW 04:59:19 16° SSE
CZ-2C R/B 3.5 04:50:03 10° N 04:55:35 54° W 05:01:05 10° SSW
NOAA 11 4.2 04:50:23 10° SSE 04:55:52 58° E 05:01:18 10° N
Cosmos 1553 Rocket 4.2 04:52:01 10° SSW 04:58:12 73° W 05:04:18 10° N
Cosmos 1825 3.5 04:56:50 10° NW 05:00:27 39° WSW 05:04:08 10° S
Cosmos 1697 Rocket 4.2 04:57:37 10° SW 05:02:04 22° S 05:03:52 19° SSE
MOS 1-B 4.5 04:56:57 10° SSE 05:02:42 51° E 05:08:24 10° N
YAOGAN 6 3.5 04:59:58 12° S 05:03:10 48° WSW 05:06:38 10° NW
Cosmos 1933 3.5 04:59:04 10° SSW 05:03:18 79° WNW 05:07:26 10° N
COSMOS 2428 3.1 04:57:57 10° NW 05:03:39 61° SW 05:07:36 20° SSE
Cosmos 2315 Rocket 4.0 04:58:00 10° S 05:04:19 61° ESE 05:10:37 10° NNE
Meteor 2-6 Rocket 4.3 04:59:08 10° S 05:04:38 50° ESE 05:06:36 35° ENE
NOSS 0 Rocket 3.9 04:58:26 10° NW 05:04:42 87° NE 05:08:33 25° SE
Cosmos 724 4.2 04:59:12 10° SW 05:05:02 89° NW 05:08:23 27° NE
SMAP 3.0 05:05:38 28° SSE 05:08:03 63° ENE 05:12:44 10° N
PAYLOAD B 4.3 05:04:27 12° SSE 05:09:36 56° ENE 05:15:06 10° N
CZ-4B R/B 4.4 05:07:46 10° NW 05:09:58 17° W 05:12:14 10° SW
Okean O Rocket 3.6 05:18:38 16° NNE 05:18:38 16° NNE 05:19:39 10° N
Cosmos 1980 Rocket 3.8 05:11:35 10° SW 05:15:59 22° S 05:17:49 19° SSE
Meteor 2-3 Rocket 3.7 05:10:40 10° N 05:16:16 62° E 05:21:59 10° SSE
Cosmos 1125 Rocket 4.4 05:12:21 10° SSW 05:16:56 32° SE 05:16:56 32° SE
CZ-2C R/B 3.7 05:19:00 33° NNE 05:19:00 33° NNE 05:21:55 10° N
Meteor 2-16 Rocket 4.5 05:12:30 10° NNE 05:18:26 54° E 05:24:25 10° SSE
Cosmos 1633 2.7 05:16:52 10° NNW 05:20:29 70° WSW 05:20:59 60° SSW
Cosmos 1689 Rocket 4.0 05:19:08 10° NNW 05:21:48 31° W 05:24:30 10° SSW
NOAA 12 4.0 05:16:49 10° SSE 05:22:17 84° ENE 05:27:39 10° NNW
Cosmos 2263 4.1 05:17:15 10° SW 05:22:58 76° SE 05:24:44 46° NE
SeaSat 1 4.1 05:23:05 20° SSE 05:23:16 20° SSE 05:26:50 10° SSW
Radarsat Rocket 3.9 05:17:06 10° SSE 05:23:22 62° ENE 05:29:12 10° N
CZ-4B R/B 4.2 05:19:11 10° S 05:23:31 45° WSW 05:27:40 10° NW
Cosmos 1980 3.7 05:17:48 10° NW 05:23:32 83° SW 05:26:12 33° SSE
Meteor 1-27 Rocket 4.3 05:19:46 10° S 05:24:10 37° SE 05:24:10 37° SE
Envisat 3.9 05:20:21 10° S 05:25:20 49° WSW 05:30:16 10° NW
ATLAS 3B R/B 2.8 05:19:31 10° NW 05:27:02 85° NE 05:30:10 38° ESE
Cosmos 405 Rocket 4.3 05:23:48 10° NW 05:27:21 34° WSW 05:30:25 14° S
Meteor 2-21 Rocket 4.4 05:21:46 10° N 05:27:59 70° E 05:34:15 10° SSE
ATLAS CENTAUR R/B 3.7 05:15:58 10° NW 05:32:48 71° NNE 05:35:31 44° E
Cosmos 1937 Rocket 3.5 05:27:50 10° SSW 05:33:09 79° WNW 05:35:18 37° NNE
SL-16 R/B 2.3 05:31:41 10° NNW 05:36:59 57° NE 05:36:59 57° NE
CZ-4B DEB 4.2 05:31:49 10° SSE 05:37:26 85° WSW 05:42:57 10° NNW
Cosmos 1932 4.5 05:31:05 10° SW 05:37:34 70° SSE 05:38:53 56° E
Cosmos 1939 Rocket 4.3 05:40:15 31° N 05:40:15 31° N 05:42:28 10° NNW
ATLAS CENTAUR R/B 3.8 05:38:52 10° WSW 05:42:11 21° WNW 05:45:20 10° N
NOAA 6 4.3 05:37:37 12° SSE 05:42:30 70° WSW 05:47:39 10° NNW
ERS-2 3.9 05:40:06 10° NNW 05:43:30 33° W 05:46:57 10° SSW
FengYun 1-2 T 4.1 05:38:39 12° SSE 05:43:59 90° WSW 05:49:33 10° NNW
CORIOLIS 4.1 05:40:48 20° SSE 05:44:47 90° ENE 05:50:19 10° NNW
Cosmos 1655 Rocket 4.1 05:45:30 10° NNW 05:51:55 82° WSW 05:58:28 10° SSE
Genesis I 4.3 05:48:48 10° WNW 05:51:44 44° W 05:51:44 44° W
SL-16 R/B 3.9 05:51:54 10° WSW 05:56:25 23° S 05:57:49 21° SSE
NOSS 3-2 (C) 4.1 05:49:26 10° W 05:57:08 57° S 05:58:50 46° SE
Cosmos 1943 Rocket 3.6 05:53:44 10° SW 05:58:57 37° WNW 06:04:08 10° N
Cosmos 1328 Rocket 4.3 05:55:55 10° SSW 06:00:20 53° W 06:01:04 47° NW
Cosmos 2333 Rocket 3.6 05:56:56 10° W 06:02:02 32° SSW 06:04:10 25° S
Cosmos 2237 Rocket 2.7 05:59:27 10° WNW 06:05:06 56° SW 06:06:42 42° S
Cosmos 2151 4.3 06:01:48 10° NW 06:05:49 39° WSW 06:06:57 33° SSW
Cosmos 1656 Rocket 3.7 06:00:32 10° SW 06:06:05 73° WNW 06:06:17 72° NW
Lacrosse 4 Rocket 3.5 06:06:09 10° SW 06:08:03 21° SSW 06:08:03 21° SSW
Cosmos 372 Rocket 4.2 06:05:14 10° SSW 06:10:19 69° W 06:10:19 69° W
NOSS 3-2 (A) 3.9 06:10:17 10° WSW 06:17:45 56° S 06:18:16 54° SSE
Cosmos 2322 Rocket 3.9 06:16:45 10° SW 06:21:07 22° S 06:21:43 22° S
Meteor 1-10 Rocket 4.4 06:16:32 10° SSW 06:22:14 68° W 06:22:15 68° W
Cosmos 2266 Rocket 4.4 06:19:34 10° NNW 06:25:38 60° WSW 06:31:53 10° S
Cosmos 2369 Rocket 3.3 06:20:36 10° SW 06:25:53 40° WNW 06:27:22 34° NNW
CZ-4B R/B 3.8 06:31:21 52° WNW 06:31:21 52° WNW 06:35:38 10° NW
USA 238 DEB 4.0 06:25:14 10° WSW 06:32:26 56° S 06:32:38 56° SSE
USA 238 4.0 06:25:20 10° WSW 06:32:32 56° S 06:32:44 56° SSE
Cosmos 2219 Rocket 3.8 06:32:45 10° WSW 06:37:31 27° SSW 06:38:23 26° S
USA 234 3.7 06:39:55 52° NNW 06:39:55 52° NNW 06:45:03 10° WNW
Cosmos 2360 Rocket 4.0 06:36:19 10° WSW 06:40:46 23° S 06:41:04 22° S
CENTAUR R/B 3.0 06:35:49 10° WSW 06:41:48 50° SSW 06:41:48 50° SSW
Cosmos 1697 Rocket 4.3 06:42:28 10° SW 06:45:35 26° S 06:45:35 26° S
COSMOS 2428 4.3 06:44:10 10° WSW 06:49:02 27° SSW 06:49:37 27° S
Cosmos 1980 Rocket 4.0 06:56:45 10° SW 06:59:34 23° S 06:59:34 23° S
ATLAS 3B R/B 3.3 07:10:59 10° W 07:17:25 54° SW 07:17:25 54° SW
SL-16 R/B 3.9 07:16:06 10° WNW 07:18:54 27° W 07:18:54 27° W
SL-16 R/B 4.5 07:37:36 10° SW 07:39:40 19° SSW 07:39:40 19° SSW
Cosmos 2333 Rocket 4.5 07:43:35 10° SW 07:46:11 19° SSW 07:46:11 19° SSW
Cosmos 2237 Rocket 4.3 07:45:35 10° WSW 07:48:32 22° SW 07:48:32 22° SW
